SCP
-0 -0 -0 -0 -0 -0 -0 0 0 0 0 0 0 0 0 0 0 0 0 0 0 0 0 1 0 0 0 0 0 0 0 0 0 0 0 0 0 0 0 0 0 0 0 0
-0 -0 -0 -0 -0 0 0 0 -0 -0 0 0 0 0 0 0 0 0 0 0 0 0 0 1 0 0 0 0 0 0 0 0 0 0 0 0 0 0 0 0 0 0 0 0
-0 -0 -0 0 -0 0 -0 -0 -0 0 0 0 0 0 0 0 0 0 0 0 0 1 0 0 0 0 0 0 0 0 0 0 0 0 0 0 0 0 0 0 0 0 0 0
0 0 0 0 0 0 0 0 0 0 -0 0 0 0 0 0 0 0 0 0 0 1 0 0 0 0 0 0 0 0 0 0 0 0 0 0 -0 -0 0 0 0 0 0 0
0 0 -0 -0 0 0 -0 0 0 0 0 0 0 0 0 0 0 0 0 0 1 1 0 0 0 0 0 0 0 0 0 0 0 0 -0 -0 -0 -0 0 0 0 0 0 0
0 0 0 0 0 -0 -0 0 -0 0 0 0 0 0 0 0 0 0 0 0 1 1 0 0 0 0 0 0 0 0 0 0 0 0 -0 -0 -0 -0 -0 0 0 0 0 -0
0 0 0 0 -0 0 -0 0 0 0 0 0 0 0 0 0 0 0 0 0 1 1 1 0 0 0 0 0 0 0 0 0 0 -0 -0 -0 -0 -0 -0 -0 0 0 -0 0
0 0 0 -0 0 0 0 -0 -0 0 0 0 0 0 0 0 0 0 0 0 1 1 0 0 0 0 0 0 0 0 0 0 -0 -0 0 -0 -0 -0 -0 -0 -0 0 -0 0
0 0 -0 -0 0 -0 -0 -0 -0 -0 0 0 0 0 0 0 0 0 0 1 1 1 0 0 -0 0 0 0 0 0 0 0 -0 -0 -0 -0 -0 0 0 -0 0 0 0 0
0 0 -0 -0 0 -0 -0 -0 -0 -0 0 0 0 0 0 0 0 0 1 1 1 0 0 0 -0 0 0 0 0 0 0 -0 -0 -0 -0 -0 -0 -0 -0 -0 0 0 0 0
0 -0 -0 -0 0 0 -0 -0 -0 -0 0 0 0 0 0 0 0 1 1 1 1 0 0 0 0 0 0 0 -0 0 0 -0 -0 -0 -0 -0 -0 -0 -0 -0 0 0 0 0
0 -0 0 0 0 0 -0 -0 -0 0 0 0 0 0 0 0 0 2 2 1 1 0 0 0 0 0 0 0 0 0 -0 0 -0 -0 -0 -0 -0 -0 -0 -0 0 0 0 0
0 -0 0 0 0 -0 0 0 0 0 0 0 0 0 0 0 1 1 1 0 0 0 0 0 0 0 0 -0 0 0 -0 -0 0 0 0 -0 -0 -0 -0 0 0 0 0 0
0 -0 -0 0 -0 -0 0 0 0 0 0 0 0 0 0 0 0 1 2 1 0 0 0 0 0 0 0 0 -0 0 -0 -0 -0 0 0 -0 0 -0 -0 0 -0 0 0 0
0 -0 0 -0 0 0 0 0 0 0 0 0 0 0 0 0 0 0 0 1 0 0 0 -0 0 0 0 0 0 0 -0 -0 -0 0 0 0 0 0 0 0 0 0 0 0
0 -0 -0 0 0 0 0 0 0 0 0 0 0 0 0 0 0 0 0 0 0 0 0 0 0 0 0 0 0 0 -0 0 0 0 0 -0 0 0 0 0 0 0 0 0
-0 -0 0 -0 -0 0 0 0 0 0 0 0 0 0 0 0 0 0 0 0 0 0 0 0 0 0 0 0 0 0 0 0 0 0 0 -0 -0 0 0 0 0 0 0 0
-0 -0 0 -0 0 0 0 0 0 0 0 0 0 0 0 0 0 0 0 0 0 0 0 0 0 0 0 0 0 0 0 0 0 0 0 0 0 0 0 0 0 0 0 0
-0 0 0 0 -0 0 -0 0 0 0 0 0 0 0 0 0 0 0 0 0 0 0 0 0 0 0 0 0 0 0 0 0 0 0 0 0 0 0 0 0 0 0 0 0
0 0 0 0 0 -0 -0 -0 0 0 0 0 0 0 0 0 0 0 0 0 0 0 0 0 0 0 0 0 0 0 0 0 0 0 0 0 0 0 0 0 0 0 0 -0
0 0 0 0 0 0 -0 -0 0 0 0 0 0 0 0 0 0 0 0 0 0 0 0 0 0 0 0 0 0 1 1 1 0 0 0 0 0 0 0 0 0 0 0 0
0 0 -0 0 -0 0 0 -0 0 0 0 0 0 0 0 0 0 0 0 0 0 0 0 0 0 0 0 0 0 0 0 0 0 0 0 0 0 0 0 0 0 0 0 0
0 -0 -0 0 -0 -0 0 0 0 0 0 0 0 0 0 0 0 0 0 0 0 0 0 0 0 0 0 0 0 0 0 0 0 0 0 0 0 0 0 0 0 0 0 0
0 0 0 0 0 0 0 0 0 0 0 0 0 0 0 0 0 0 0 0 0 0 0 0 0 0 0 0 0 0 0 0 0 0 0 0 0 0 0 0 0 0 0 0
-0 0 0 0 0 0 -0 -0 -0 0 0 0 0 0 0 0 0 0 0 0 0 0 0 0 0 0 0 0 0 0 0 0 0 0 0 0 0 0 0 0 0 0 0 0
-0 0 0 -0 -0 -0 -0 -0 -0 0 0 0 0 0 0 0 0 0 0 0 0 0 0 0 0 0 0 0 0 0 0 0 0 0 0 0 0 0 0 0 0 0 0 0
-0 -0 -0 -0 0 -0 -0 -0 -0 -0 -0 0 0 0 0 0 0 0 0 0 0 0 0 0 0 0 0 0 0 0 0 0 0 0 0 0 0 0 0 0 0 0 0 0
Wind_Speed_500mb
33 37 34 33 35 34 39 37 37 36 37 36 36 33 32 44 50 49 41 39 36 11 12 15 29 36 38 40 43 42 40 37 36 34 32 31 29 29 28 26 26 24 22 19
35 33 33 39 41 42 44 45 37 44 49 48 49 58 50 46 40 39 39 37 33 3 16 20 30 37 41 42 42 40 37 34 34 32 31 28 28 30 29 29 28 24 21 14
26 20 20 24 32 35 43 40 36 42 42 40 41 42 41 45 40 41 37 35 32 7 22 26 34 39 43 43 41 39 36 35 33 29 25 25 29 30 30 29 27 22 17 9
15 12 13 4 7 21 28 32 32 36 37 42 44 53 49 39 37 41 41 39 33 10 27 33 37 41 44 43 41 37 36 34 30 25 23 27 31 30 30 24 22 21 12 8
8 16 27 32 3 8 6 24 33 40 40 41 49 45 47 42 42 38 26 32 21 14 34 38 43 47 46 44 40 38 37 32 27 25 27 29 30 32 29 25 23 17 11 10
8 11 8 8 2 21 11 21 27 28 26 34 24 22 18 12 10 20 29 28 25 19 39 43 46 49 48 45 43 41 36 30 27 26 28 29 31 29 26 25 23 17 15 13
19 12 10 8 26 8 8 9 36 37 41 37 19 23 39 37 37 33 32 28 26 29 42 46 51 52 50 46 44 40 36 31 28 26 26 28 30 27 26 25 22 20 19 16
9 9 3 34 28 7 22 45 47 47 47 43 42 41 40 42 39 34 28 23 21 34 41 48 52 54 49 47 45 41 36 32 29 28 24 26 28 26 27 27 24 22 21 20
5 8 33 48 34 46 53 51 55 50 43 45 48 49 43 40 34 31 24 19 21 36 43 48 53 51 49 49 47 41 37 33 30 27 25 25 26 23 23 24 22 22 21 19
16 10 28 45 38 46 26 34 46 61 63 52 54 45 42 39 34 27 23 23 24 40 47 50 53 48 46 51 48 43 38 34 31 31 28 25 21 19 19 23 26 24 25 22
19 25 44 9 36 38 47 38 54 59 34 29 32 38 36 35 31 25 21 27 34 45 49 52 53 48 50 51 47 44 38 34 29 29 27 26 20 16 12 15 21 23 23 22
7 39 29 29 40 48 51 47 64 46 28 15 18 24 29 36 32 23 26 34 43 47 52 53 53 52 50 50 47 45 40 34 30 28 24 21 20 19 17 15 22 28 26 21
12 32 28 36 40 47 44 45 55 38 25 16 6 17 17 17 10 19 31 46 49 52 53 52 54 55 51 48 47 45 39 34 30 27 25 23 23 22 20 23 22 22 24 27
19 26 31 43 48 46 44 42 42 41 39 37 27 19 13 17 21 23 25 42 46 46 51 54 51 51 51 47 46 44 39 36 32 27 22 21 22 19 20 20 21 22 21 21
25 18 28 37 46 53 48 42 52 58 48 49 38 36 30 33 34 31 28 37 36 33 40 49 49 47 47 46 45 44 41 37 32 27 23 21 22 21 20 15 18 21 23 23
27 22 32 39 46 50 55 50 49 58 54 48 40 46 43 42 43 41 43 42 43 36 32 32 41 42 43 43 43 44 41 38 31 29 25 21 20 21 19 17 16 13 19 24
27 29 34 40 42 42 47 47 39 41 51 51 47 40 46 47 50 57 47 40 41 43 41 48 44 26 39 41 43 43 41 38 32 29 26 24 19 21 21 19 16 15 16 18
22 23 27 32 37 36 38 42 44 44 43 43 45 54 56 57 60 52 52 47 44 33 28 30 38 39 37 35 39 38 39 37 34 29 26 26 23 19 20 20 18 19 20 21
21 24 27 31 36 39 36 34 31 34 42 41 48 53 53 55 54 55 51 53 45 42 32 26 27 31 48 49 44 35 35 35 36 30 27 25 26 22 18 19 21 21 19 21
20 22 25 29 34 37 39 36 29 30 33 33 35 50 56 51 51 49 55 61 47 30 32 28 22 35 37 39 42 31 32 32 31 28 25 25 22 23 22 18 19 21 20 16
18 22 25 28 31 32 35 33 32 31 29 29 33 38 41 49 44 51 51 52 45 29 33 30 24 28 39 44 44 37 30 28 26 23 18 19 19 21 22 23 21 19 19 18
13 21 24 25 30 34 35 35 35 34 33 32 28 27 27 36 45 44 48 49 37 29 29 30 30 25 35 40 42 34 34 34 32 32 31 24 24 26 27 24 22 22 20 18
10 18 19 20 26 29 29 33 34 33 38 37 32 29 35 34 31 36 42 40 30 25 28 23 27 31 35 40 43 39 31 31 32 27 26 29 32 34 39 43 44 42 39 33
11 13 11 15 21 24 28 29 34 36 38 40 40 35 32 36 35 35 35 30 29 26 27 26 27 27 35 43 41 42 38 32 27 24 28 29 30 29 30 30 29 26 24 23
12 11 7 14 22 22 21 22 27 33 36 38 38 38 38 36 34 33 33 33 36 39 37 32 29 25 34 37 35 35 35 36 33 32 34 37 42 42 39 34 32 38 41 37
15 9 7 14 17 14 16 18 24 26 29 34 36 36 37 37 36 37 37 39 42 49 54 55 58 57 60 62 58 54 57 61 56 59 60 61 61 61 58 54 50 49 49 48
17 13 11 12 11 11 11 14 19 24 26 28 32 31 31 35 38 41 45 48 51 53 57 60 63 64 66 68 72 73 69 68 69 66 65 67 63 62 63 61 60 58 57 57
Wind_Direction_500mb
274 275 276 274 269 262 258 256 265 264 269 270 275 291 306 302 305 309 320 329 348 353 188 173 160 152 149 145 145 145 146 146 144 144 145 149 151 154 157 155 156 159 165 171
285 278 262 263 261 260 256 250 251 258 266 268 279 280 284 289 300 307 312 321 332 343 189 169 159 155 151 150 149 148 146 145 144 145 151 155 158 159 156 156 160 162 164 170
275 285 291 276 265 261 253 250 253 256 263 272 269 269 275 283 290 292 301 306 318 251 191 174 166 160 157 156 153 149 148 148 149 150 157 164 163 160 162 166 168 166 159 160
269 307 245 262 354 332 312 302 287 282 274 267 264 269 275 275 281 287 294 297 298 245 184 178 169 164 161 159 156 153 152 151 154 154 161 164 163 163 166 167 169 161 156 148
261 238 271 274 22 356 318 285 293 280 272 274 275 264 263 265 269 274 291 304 292 234 179 176 170 165 164 162 160 156 154 155 154 161 163 164 167 170 168 168 162 156 146 142
283 269 275 78 354 356 278 269 11 354 309 294 274 238 245 269 281 290 290 299 289 197 173 173 171 168 167 164 161 160 158 155 157 165 165 167 166 166 169 169 162 152 136 163
259 267 256 118 347 347 223 0 326 317 308 301 283 269 287 298 290 289 285 285 279 185 173 172 171 170 168 165 164 161 157 155 158 162 164 169 167 170 167 164 165 150 144 150
295 275 341 346 325 239 328 305 298 297 295 286 288 290 280 280 280 287 282 275 245 180 175 172 173 170 169 168 164 162 160 157 161 162 158 160 160 165 171 171 165 153 153 154
240 298 283 292 292 283 281 278 287 289 284 281 279 270 277 274 278 279 265 251 219 180 173 170 172 171 169 167 165 164 162 160 165 156 158 154 158 167 172 178 175 166 160 167
306 288 315 319 331 321 320 301 307 301 289 274 264 262 268 274 265 262 239 213 205 180 172 171 173 171 168 165 166 164 162 164 167 160 156 151 155 170 179 187 181 176 168 169
287 286 314 318 340 332 327 328 316 319 294 262 248 253 257 265 259 249 223 203 191 177 172 172 171 169 167 167 165 164 162 163 164 163 158 157 154 163 178 182 177 178 170 168
287 303 315 327 342 333 323 325 318 328 326 319 265 263 267 257 254 241 208 190 180 173 170 169 168 167 168 167 166 164 162 162 164 164 159 162 161 159 164 160 164 172 168 163
292 315 331 342 342 333 325 324 327 339 352 358 298 270 244 217 209 199 178 171 171 171 167 166 166 167 169 171 169 167 165 164 162 161 163 165 166 160 155 153 153 163 175 183
338 341 344 349 349 342 338 335 344 7 23 51 56 67 99 107 109 108 134 167 165 163 165 165 164 167 170 173 172 173 171 169 166 160 157 163 169 170 164 162 156 159 158 170
335 346 345 350 354 346 346 350 6 11 22 49 54 60 77 85 90 91 105 126 139 153 166 171 167 168 170 175 173 174 175 173 169 165 161 158 165 173 170 168 158 156 162 162
342 354 356 1 356 349 350 358 8 15 28 30 58 68 70 80 87 95 103 106 113 108 115 158 159 166 172 174 173 174 175 175 169 166 167 160 161 166 167 155 143 150 166 165
1 2 357 0 1 356 353 351 9 14 31 37 61 76 78 82 85 87 89 105 129 142 140 147 141 147 167 176 174 177 177 180 170 167 169 166 161 168 168 166 156 145 150 163
4 1 8 1 359 360 2 358 3 23 24 44 58 77 79 79 81 89 94 104 107 115 128 139 152 144 156 169 172 177 179 181 174 174 173 171 168 167 174 174 168 154 156 149
17 9 13 12 8 2 13 10 6 15 26 39 53 58 73 77 81 83 85 89 88 84 101 136 151 165 177 175 167 176 176 174 176 177 176 175 173 173 170 174 175 168 168 173
20 22 21 23 19 18 14 18 23 29 28 36 54 61 62 73 83 85 79 77 76 62 75 103 139 173 165 165 169 171 177 175 172 172 173 180 183 181 180 174 168 172 173 179
22 31 30 27 36 36 29 36 38 36 36 41 49 52 58 60 75 85 86 84 75 58 81 88 100 120 142 156 158 145 147 145 152 160 167 161 165 168 178 179 175 165 165 168
40 35 33 34 39 39 36 38 44 45 52 57 60 59 62 67 65 69 78 80 83 79 71 86 96 124 130 141 144 157 160 159 157 144 132 134 135 139 139 138 146 154 149 142
50 48 35 44 48 43 40 44 49 53 59 64 71 64 68 71 74 76 71 76 83 84 85 75 99 112 132 139 135 138 147 157 160 158 157 163 165 167 167 164 163 161 162 164
115 70 46 57 62 49 43 45 47 53 58 61 64 70 79 74 77 78 81 84 89 95 102 109 94 102 107 108 115 127 132 129 133 145 157 155 149 150 149 147 144 139 141 140
129 123 83 66 60 51 45 47 50 50 58 63 66 69 74 81 87 90 97 102 104 101 101 103 101 106 101 105 112 120 135 142 151 161 157 149 139 136 135 137 137 128 123 120
163 143 106 71 74 64 56 58 65 61 53 57 64 67 74 80 86 94 99 102 105 103 99 100 103 104 103 101 101 103 110 111 116 118 117 115 114 111 108 111 112 108 101 96
172 156 120 100 104 89 83 79 78 72 66 67 70 72 72 73 81 89 92 95 96 98 101 103 101 102 104 105 106 107 105 101 102 101 98 98 97 96 96 94 91 86 86 86
Wind_Speed_850mb
33 37 34 33 35 34 39 37 37 36 37 36 36 33 32 44 50 49 41 39 36 11 12 15 29 36 38 40 43 42 40 37 36 34 32 31 29 29 28 26 26 24 22 19
35 33 33 39 41 42 44 45 37 44 49 48 49 58 50 46 40 39 39 37 33 3 16 20 30 37 41 42 42 40 37 34 34 32 31 28 28 30 29 29 28 24 21 14
26 20 20 24 32 35 43 40 36 42 42 40 41 42 41 45 40 41 37 35 32 7 22 26 34 39 43 43 41 39 36 35 33 29 25 25 29 30 30 29 27 22 17 9
15 12 13 4 7 21 28 32 32 36 37 42 44 53 49 39 37 41 41 39 33 10 27 33 37 41 44 43 41 37 36 34 30 25 23 27 31 30 30 24 22 21 12 8
8 16 27 32 3 8 6 24 33 40 40 41 49 45 47 42 42 38 26 32 21 14 34 38 43 47 46 44 40 38 37 32 27 25 27 29 30 32 29 25 23 17 11 10
8 11 8 8 2 21 11 21 27 28 26 34 24 22 18 12 10 20 29 28 25 19 39 43 46 49 48 45 43 41 36 30 27 26 28 29 31 29 26 25 23 17 15 13
19 12 10 8 26 8 8 9 36 37 41 37 19 23 39 37 37 33 32 28 26 29 42 46 51 52 50 46 44 40 36 31 28 26 26 28 30 27 26 25 22 20 19 16
9 9 3 34 28 7 22 45 47 47 47 43 42 41 40 42 39 34 28 23 21 34 41 48 52 54 49 47 45 41 36 32 29 28 24 26 28 26 27 27 24 22 21 20
5 8 33 48 34 46 53 51 55 50 43 45 48 49 43 40 34 31 24 19 21 36 43 48 53 51 49 49 47 41 37 33 30 27 25 25 26 23 23 24 22 22 21 19
16 10 28 45 38 46 26 34 46 61 63 52 54 45 42 39 34 27 23 23 24 40 47 50 53 48 46 51 48 43 38 34 31 31 28 25 21 19 19 23 26 24 25 22
19 25 44 9 36 38 47 38 54 59 34 29 32 38 36 35 31 25 21 27 34 45 49 52 53 48 50 51 47 44 38 34 29 29 27 26 20 16 12 15 21 23 23 22
7 39 29 29 40 48 51 47 64 46 28 15 18 24 29 36 32 23 26 34 43 47 52 53 53 52 50 50 47 45 40 34 30 28 24 21 20 19 17 15 22 28 26 21
12 32 28 36 40 47 44 45 55 38 25 16 6 17 17 17 10 19 31 46 49 52 53 52 54 55 51 48 47 45 39 34 30 27 25 23 23 22 20 23 22 22 24 27
19 26 31 43 48 46 44 42 42 41 39 37 27 19 13 17 21 23 25 42 46 46 51 54 51 51 51 47 46 44 39 36 32 27 22 21 22 19 20 20 21 22 21 21
25 18 28 37 46 53 48 42 52 58 48 49 38 36 30 33 34 31 28 37 36 33 40 49 49 47 47 46 45 44 41 37 32 27 23 21 22 21 20 15 18 21 23 23
27 22 32 39 46 50 55 50 49 58 54 48 40 46 43 42 43 41 43 42 43 36 32 32 41 42 43 43 43 44 41 38 31 29 25 21 20 21 19 17 16 13 19 24
27 29 34 40 42 42 47 47 39 41 51 51 47 40 46 47 50 57 47 40 41 43 41 48 44 26 39 41 43 43 41 38 32 29 26 24 19 21 21 19 16 15 16 18
22 23 27 32 37 36 38 42 44 44 43 43 45 54 56 57 60 52 52 47 44 33 28 30 38 39 37 35 39 38 39 37 34 29 26 26 23 19 20 20 18 19 20 21
21 24 27 31 36 39 36 34 31 34 42 41 48 53 53 55 54 55 51 53 45 42 32 26 27 31 48 49 44 35 35 35 36 30 27 25 26 22 18 19 21 21 19 21
20 22 25 29 34 37 39 36 29 30 33 33 35 50 56 51 51 49 55 61 47 30 32 28 22 35 37 39 42 31 32 32 31 28 25 25 22 23 22 18 19 21 20 16
18 22 25 28 31 32 35 33 32 31 29 29 33 38 41 49 44 51 51 52 45 29 33 30 24 28 39 44 44 37 30 28 26 23 18 19 19 21 22 23 21 19 19 18
13 21 24 25 30 34 35 35 35 34 33 32 28 27 27 36 45 44 48 49 37 29 29 30 30 25 35 40 42 34 34 34 32 32 31 24 24 26 27 24 22 22 20 18
10 18 19 20 26 29 29 33 34 33 38 37 32 29 35 34 31 36 42 40 30 25 28 23 27 31 35 40 43 39 31 31 32 27 26 29 32 34 39 43 44 42 39 33
11 13 11 15 21 24 28 29 34 36 38 40 40 35 32 36 35 35 35 30 29 26 27 26 27 27 35 43 41 42 38 32 27 24 28 29 30 29 30 30 29 26 24 23
12 11 7 14 22 22 21 22 27 33 36 38 38 38 38 36 34 33 33 33 36 39 37 32 29 25 34 37 35 35 35 36 33 32 34 37 42 42 39 34 32 38 41 37
15 9 7 14 17 14 16 18 24 26 29 34 36 36 37 37 36 37 37 39 42 49 54 55 58 57 60 62 58 54 57 61 56 59 60 61 61 61 58 54 50 49 49 48
17 13 11 12 11 11 11 14 19 24 26 28 32 31 31 35 38 41 45 48 51 53 57 60 63 64 66 68 72 73 69 68 69 66 65 67 63 62 63 61 60 58 57 57
Wind_Direction_850mb
274 275 276 274 269 262 258 256 265 264 269 270 275 291 306 302 305 309 320 329 348 353 188 173 160 152 149 145 145 145 146 146 144 144 145 149 151 154 157 155 156 159 165 171
285 278 262 263 261 260 256 250 251 258 266 268 279 280 284 289 300 307 312 321 332 343 189 169 159 155 151 150 149 148 146 145 144 145 151 155 158 159 156 156 160 162 164 170
275 285 291 276 265 261 253 250 253 256 263 272 269 269 275 283 290 292 301 306 318 251 191 174 166 160 157 156 153 149 148 148 149 150 157 164 163 160 162 166 168 166 159 160
269 307 245 262 354 332 312 302 287 282 274 267 264 269 275 275 281 287 294 297 298 245 184 178 169 164 161 159 156 153 152 151 154 154 161 164 163 163 166 167 169 161 156 148
261 238 271 274 22 356 318 285 293 280 272 274 275 264 263 265 269 274 291 304 292 234 179 176 170 165 164 162 160 156 154 155 154 161 163 164 167 170 168 168 162 156 146 142
283 269 275 78 354 356 278 269 11 354 309 294 274 238 245 269 281 290 290 299 289 197 173 173 171 168 167 164 161 160 158 155 157 165 165 167 166 166 169 169 162 152 136 163
259 267 256 118 347 347 223 0 326 317 308 301 283 269 287 298 290 289 285 285 279 185 173 172 171 170 168 165 164 161 157 155 158 162 164 169 167 170 167 164 165 150 144 150
295 275 341 346 325 239 328 305 298 297 295 286 288 290 280 280 280 287 282 275 245 180 175 172 173 170 169 168 164 162 160 157 161 162 158 160 160 165 171 171 165 153 153 154
240 298 283 292 292 283 281 278 287 289 284 281 279 270 277 274 278 279 265 251 219 180 173 170 172 171 169 167 165 164 162 160 165 156 158 154 158 167 172 178 175 166 160 167
306 288 315 319 331 321 320 301 307 301 289 274 264 262 268 274 265 262 239 213 205 180 172 171 173 171 168 165 166 164 162 164 167 160 156 151 155 170 179 187 181 176 168 169
287 286 314 318 340 332 327 328 316 319 294 262 248 253 257 265 259 249 223 203 191 177 172 172 171 169 167 167 165 164 162 163 164 163 158 157 154 163 178 182 177 178 170 168
287 303 315 327 342 333 323 325 318 328 326 319 265 263 267 257 254 241 208 190 180 173 170 169 168 167 168 167 166 164 162 162 164 164 159 162 161 159 164 160 164 172 168 163
292 315 331 342 342 333 325 324 327 339 352 358 298 270 244 217 209 199 178 171 171 171 167 166 166 167 169 171 169 167 165 164 162 161 163 165 166 160 155 153 153 163 175 183
338 341 344 349 349 342 338 335 344 7 23 51 56 67 99 107 109 108 134 167 165 163 165 165 164 167 170 173 172 173 171 169 166 160 157 163 169 170 164 162 156 159 158 170
335 346 345 350 354 346 346 350 6 11 22 49 54 60 77 85 90 91 105 126 139 153 166 171 167 168 170 175 173 174 175 173 169 165 161 158 165 173 170 168 158 156 162 162
342 354 356 1 356 349 350 358 8 15 28 30 58 68 70 80 87 95 103 106 113 108 115 158 159 166 172 174 173 174 175 175 169 166 167 160 161 166 167 155 143 150 166 165
1 2 357 0 1 356 353 351 9 14 31 37 61 76 78 82 85 87 89 105 129 142 140 147 141 147 167 176 174 177 177 180 170 167 169 166 161 168 168 166 156 145 150 163
4 1 8 1 359 360 2 358 3 23 24 44 58 77 79 79 81 89 94 104 107 115 128 139 152 144 156 169 172 177 179 181 174 174 173 171 168 167 174 174 168 154 156 149
17 9 13 12 8 2 13 10 6 15 26 39 53 58 73 77 81 83 85 89 88 84 101 136 151 165 177 175 167 176 176 174 176 177 176 175 173 173 170 174 175 168 168 173
20 22 21 23 19 18 14 18 23 29 28 36 54 61 62 73 83 85 79 77 76 62 75 103 139 173 165 165 169 171 177 175 172 172 173 180 183 181 180 174 168 172 173 179
22 31 30 27 36 36 29 36 38 36 36 41 49 52 58 60 75 85 86 84 75 58 81 88 100 120 142 156 158 145 147 145 152 160 167 161 165 168 178 179 175 165 165 168
40 35 33 34 39 39 36 38 44 45 52 57 60 59 62 67 65 69 78 80 83 79 71 86 96 124 130 141 144 157 160 159 157 144 132 134 135 139 139 138 146 154 149 142
50 48 35 44 48 43 40 44 49 53 59 64 71 64 68 71 74 76 71 76 83 84 85 75 99 112 132 139 135 138 147 157 160 158 157 163 165 167 167 164 163 161 162 164
115 70 46 57 62 49 43 45 47 53 58 61 64 70 79 74 77 78 81 84 89 95 102 109 94 102 107 108 115 127 132 129 133 145 157 155 149 150 149 147 144 139 141 140
129 123 83 66 60 51 45 47 50 50 58 63 66 69 74 81 87 90 97 102 104 101 101 103 101 106 101 105 112 120 135 142 151 161 157 149 139 136 135 137 137 128 123 120
163 143 106 71 74 64 56 58 65 61 53 57 64 67 74 80 86 94 99 102 105 103 99 100 103 104 103 101 101 103 110 111 116 118 117 115 114 111 108 111 112 108 101 96
172 156 120 100 104 89 83 79 78 72 66 67 70 72 72 73 81 89 92 95 96 98 101 103 101 102 104 105 106 107 105 101 102 101 98 98 97 96 96 94 91 86 86 86